Location: Unspecified
(0.0000°N, 0.0000°E)
Time: 03:34:49
(UTC+00:00)

Vanguard 2 - Pass Details

Date: 08 June 2024
Orbit: 552 x 2914 km, 32.9° (Epoch: 14 June)

Event Time Altitude Azimuth Distance (km) Brightness Sun altitude
Exits shadow 02:33:38 16° 155° (SSE) 4,437 11.2 -46.0°
Maximum altitude 02:34:10 16° 153° (SSE) 4,471 11.3 -45.9°
Drops below altitude 10° 02:42:46 10° 120° (ESE) 5,466 12.0 -44.1°
Sets 02:50:15 0° 101° (ESE) 6,710 12.8 -42.5°
